Weather observations for the past three days for
Eufaula Municipal Airport
Imperial (Metric)
Date Time (cdt) Wind (mph) Vis. (mi.) Weather Sky Cond. Temperature (ºF) Relative Humidity Wind Chill (°F) Heat Index (°F) Pressure Precipitation (in)
Air Dwpt 6 hour altimeter (in) sea level (mb) 1 hr 3 hr 6 hr
Max. Min.
15 09:58 Calm 10.00 A Few Clouds FEW065 89.1 73 59% 97 30.11 1019.0
15 08:58 Calm 10.00 Fair CLR 84.9 73 68% 92 30.11 1019.2
15 07:58 SW 3 10.00 Fair CLR 82 72 72% 87 30.11 1019.1
15 06:58 Calm 9.00 Fair CLR 79 73.9 82.9 73.9 85% 83 30.09 1018.5
15 05:57 Calm 2.50 Fog/Mist CLR 73.9 71.1 91% 30.07 1017.7
15 04:58 Calm 8.00 Fair CLR 75.9 73 91% 76 30.05 1007.9
15 03:58 Calm 8.00 Fair CLR 75.9 73 91% 76 30.04 1016.7
15 02:58 Calm 10.00 Fair CLR 78.1 73.9 87% 81 30.04 1007.7
15 01:58 SW 3 10.00 Fair CLR 80.1 73.9 82% 85 30.06 1017.3
15 00:58 Calm 10.00 Fair CLR 81 73 91.9 78.1 77% 86 30.07 1017.7
14 23:58 SW 6 10.00 A Few Clouds FEW070 82.9 73 72% 89 30.08 1009.0
14 22:58 SW 5 10.00 Fair CLR 79 72 79% 82 30.09 1018.3
14 21:58 S 3 10.00 A Few Clouds FEW080 81 72 74% 85 30.08 1018.2
14 20:58 Calm 10.00 Fair CLR 82.9 72 70% 88 30.06 1017.4
14 19:58 Calm 10.00 Fair CLR 82.9 73 72% 89 30.05 1017.0
14 18:58 Calm 10.00 Fair CLR 91.9 73 99 91.9 54% 101 30.05 1017.2
14 17:58 Calm 10.00 Fair CLR 97 66 36% 101 30.04 1016.7
14 16:58 Vrbl 5 10.00 Fair CLR 99 64 32% 102 30.04 1016.7
14 15:58 SW 5 10.00 A Few Clouds FEW070 98.1 66.9 36% 103 30.05 1017.0
14 14:58 SE 6 10.00 Fair CLR 97 68 39% 102 30.07 1017.7
14 13:58 Vrbl 3 10.00 A Few Clouds FEW090 97 70 42% 104 30.11 1009.9
14 12:58 Vrbl 3 10.00 A Few Clouds FEW055 96.1 69.1 98.1 77 41% 102 30.13 1010.7
14 11:58 Calm 10.00 Partly Cloudy SCT050 91.9 70 49% 98 30.14 1020.3
14 10:58 W 5 10.00 Fair CLR 93.9 71.1 48% 101 30.16 1020.7
14 09:58 N 3 10.00 Fair CLR 91 75 59% 102 30.16 1020.8
14 07:58 Calm 10.00 Fair CLR 82.9 73.9 74% 89 30.17 1021.1
14 06:58 Calm 9.00 Fair CLR 77 73 80.1 72 88% 78 30.17 1021.1
14 05:58 Calm 4.00 Fog/Mist CLR 73 70 90% 30.15 1020.4
14 04:58 Calm 7.00 Fair CLR 73 70 90% 30.14 1020.3
14 03:58 Calm 8.00 Partly Cloudy SCT080 73.9 71.1 91% 30.13 1019.9
14 02:58 Calm 10.00 Fair CLR 75.9 72 88% 76 30.12 1019.6
14 01:58 Calm 10.00 Fair CLR 79 72 79% 82 30.14 1010.9
14 00:58 W 5 10.00 Fair CLR 80.1 72 90 73.9 76% 84 30.15 1011.3
13 23:58 SW 5 10.00 Fair CLR 80.1 71.1 74% 84 30.16 1020.7
13 22:58 W 5 10.00 Fair CLR 80.1 70 71% 83 30.16 1020.7
13 21:58 Calm 10.00 Fair CLR 75 70 84% 75 30.15 1020.4
13 20:58 Calm 10.00 Fair CLR 78.1 71.1 79% 80 30.14 1020.1
13 19:58 Calm 10.00 Fair CLR 82 72 72% 87 30.14 1020.1
13 18:58 Calm 10.00 Fair CLR 90 73.9 97 90 59% 99 30.13 1019.9
13 17:58 Calm 10.00 Fair CLR 97 64 34% 99 30.12 1019.4
13 16:58 S 5 10.00 Fair CLR 96.1 63 34% 98 30.12 1019.6
13 15:58 SE 5 10.00 Fair CLR 96.1 64.9 36% 99 30.13 1019.7
13 14:58 E 3 10.00 Fair CLR 96.1 64.9 36% 99 30.15 1020.3
13 13:58 Vrbl 3 10.00 Fair CLR 96.1 64.9 36% 99 30.17 1021.0
13 12:58 Vrbl 3 10.00 Fair CLR 95 64 96.1 73.9 36% 97 30.18 1021.3
13 11:58 NW 5 10.00 Fair CLR 93.9 64 37% 96 30.2 1022.0
13 10:58 Vrbl 5 10.00 Fair CLR 93 69.1 46% 98 30.2 1022.2
13 09:58 Vrbl 3 10.00 Fair CLR 90 71.1 54% 96 30.21 1022.4
13 08:58 Calm 10.00 Fair CLR 86 70 59% 91 30.2 1022.4
13 07:58 Calm 10.00 Fair CLR 81 70 69% 84 30.2 1022.1
13 06:58 Calm 10.00 Fair CLR 73.9 69.1 73.9 68 85% 30.18 1021.6
13 05:58 Calm 9.00 Fair CLR 69.1 66 90% 30.16 1020.8
13 04:58 Calm 10.00 Fair CLR 69.1 66 90% 30.14 1020.3
13 03:58 Calm 10.00 Fair CLR 70 66.9 90% 30.12 1019.4
13 02:58 Calm 10.00 Fair CLR 70 66.9 90% 30.1 1018.9
13 01:58 Calm 10.00 Fair CLR 71.1 66.9 87% 30.11 1019.1
13 00:58 Calm 10.00 Fair CLR 72 68 89.1 72 87% 30.12 1019.4
12 23:58 Calm 10.00 Fair CLR 73 69.1 87% 30.13 1019.7
12 22:58 Calm 10.00 Fair CLR 73.9 69.1 85% 30.13 1019.8
12 21:58 W 3 10.00 Fair CLR 75 70 84% 75 30.12 1019.4
12 20:58 Calm 10.00 Fair CLR 77 69.1 77% 79 30.1 1018.9
12 19:58 Calm 10.00 Fair CLR 80.1 72 76% 84 30.09 1018.6
12 18:58 Calm 10.00 A Few Clouds FEW095 89.1 72 97 89.1 57% 96 30.08 1018.2
12 16:58 SW 5 10.00 Fair CLR 93.9 63 36% 95 30.05 1017.1
12 15:58 Calm 10.00 A Few Clouds FEW070 95 63 35% 96 30.05 1017.2
12 14:58 NW 3 10.00 A Few Clouds FEW070 93.9 63 36% 95 30.07 1017.8
12 13:58 Vrbl 3 10.00 Partly Cloudy FEW075 SCT090 93.9 62.1 35% 95 30.08 1018.2
12 12:58 Vrbl 3 10.00 A Few Clouds FEW080 93.9 61 95 73 33% 94 30.09 1018.5
12 11:58 Calm 10.00 A Few Clouds FEW060 91.9 64.9 41% 94 30.1 1018.9
12 10:58 W 3 10.00 Fair CLR 91 66.9 45% 94 30.1 1019.0
Date Time (cdt) Wind (mph) Vis. (mi.) Weather Sky Cond. Air Dwpt Max. Min. Relative Humidity Wind Chill (°F) Heat Index (°F) altimeter (in) sea level (mb) 1 hr 3 hr 6 hr
6 hour
Temperature (ºF) Pressure Precipitation (in)